Weather History for KPNE - March, 2012

Change the Weather History Date:

Saturday, March 24, 2012

  Actual Average Record
Temperature  
Mean Temperature 54 °F -  
Max Temperature 61 °F 53 °F 62 °F (2003)
Min Temperature 48 °F 35 °F 21 °F (2014)
Degree Days  
Heating Degree Days 10    
Growing Degree Days 4 (Base 50)    
Moisture  
Dew Point 41 °F    
Average Humidity 65    
Maximum Humidity 90    
Minimum Humidity 28    
Precipitation  
Precipitation 0.07 in - - ()
Sea Level Pressure  
Sea Level Pressure 30.01 in    
Wind  
Wind Speed 8 mph (East)    
Max Wind Speed 22 mph    
Max Gust Speed 28 mph    
Visibility 10 miles    
Events Rain    
Averages and records for this station are not official NWS values.
T = Trace of Precipitation, MM = Missing Value Source: NWS Daily Summary

Daily Weather History Graph

Daily Weather History Graph

Search for Another Location

Airport or City:

Trip Planner

Search our weather history database for the weather conditions in past years. The results will help you decide how hot, cold, wet, or windy it might be!

Date:

Astronomy

Mar. 24, 2012 Rise Set
Actual Time 6:56 AM EDT 7:16 PM EDT
Civil Twilight 6:29 AM EDT 7:43 PM EDT
Nautical Twilight 5:57 AM EDT 8:15 PM EDT
Astronomical Twilight 5:24 AM EDT 8:48 PM EDT
Moon 7:33 AM EDT 9:33 PM EDT
Length of Visible Light 13h 14m
Length of Day
12h 20m
Waxing Crescent, 4% of the Moon is Illuminated
Mar 24
Waxing Crescent
Mar 30
First Quarter
Apr 6
Full
Apr 13
Last Quarter
Apr 21
New

Hourly Weather History & Observations

Time (EDT) Temp. Dew Point Humidity Pressure Visibility Wind Dir Wind Speed Gust Speed Precip Events Conditions
12:54 AM 53.1 °F 46.0 °F 77% 30.06 in 10.0 mi Calm Calm - N/A   Clear
1:54 AM 53.1 °F 46.0 °F 77% 30.05 in 10.0 mi Calm Calm - N/A   Clear
2:54 AM 52.0 °F 46.0 °F 80% 30.03 in 10.0 mi NE 5.8 mph - N/A   Clear
3:54 AM 52.0 °F 46.0 °F 80% 30.02 in 10.0 mi Calm Calm - N/A   Clear
4:54 AM 51.1 °F 46.0 °F 83% 30.03 in 10.0 mi NE 4.6 mph - N/A   Clear
5:54 AM 50.0 °F 44.1 °F 80% 30.03 in 10.0 mi ENE 5.8 mph - N/A   Clear
6:54 AM 51.1 °F 45.0 °F 80% 30.03 in 10.0 mi ENE 5.8 mph - N/A   Clear
7:54 AM 55.0 °F 46.9 °F 74% 30.03 in 10.0 mi ENE 9.2 mph - N/A   Clear
8:54 AM 57.9 °F 48.0 °F 70% 30.04 in 10.0 mi East 15.0 mph - N/A   Clear
9:54 AM 61.0 °F 45.0 °F 56% 30.05 in 10.0 mi East 16.1 mph - 0.01 in   Clear
10:54 AM 60.1 °F 32.0 °F 35% 30.06 in 10.0 mi East 17.3 mph - N/A   Mostly Cloudy
11:54 AM 61.0 °F 28.0 °F 29% 30.07 in 10.0 mi East 15.0 mph - 0.00 in   Overcast
12:54 PM 59.0 °F 26.1 °F 28% 30.05 in 10.0 mi ESE 15.0 mph 26.5 mph 0.00 in   Overcast
1:54 PM 57.0 °F 30.9 °F 37% 30.04 in 10.0 mi East 21.9 mph 27.6 mph 0.00 in Rain Light Rain
2:54 PM 57.0 °F 34.0 °F 42% 30.02 in 10.0 mi East 18.4 mph - 0.00 in   Overcast
3:54 PM 57.0 °F 41.0 °F 55% 30.01 in 10.0 mi East 17.3 mph - N/A   Mostly Cloudy
4:54 PM 57.0 °F 41.0 °F 55% 29.99 in 10.0 mi ESE 16.1 mph - N/A   Overcast
5:54 PM 55.9 °F 41.0 °F 57% 29.99 in 10.0 mi East 15.0 mph - N/A   Overcast
6:54 PM 54.0 °F 42.1 °F 64% 29.97 in 10.0 mi East 17.3 mph - 0.00 in Rain Light Rain
7:54 PM 54.0 °F 39.9 °F 59% 29.97 in 10.0 mi East 12.7 mph - 0.00 in   Overcast
8:06 PM 53.6 °F 39.2 °F 58% 29.96 in 10.0 mi East 15.0 mph 20.7 mph N/A   Overcast
8:54 PM 53.1 °F 39.0 °F 59% 29.99 in 10.0 mi East 5.8 mph - 0.00 in Rain Light Rain
9:09 PM 51.8 °F 41.0 °F 67% 30.00 in 8.0 mi East 5.8 mph - 0.00 in Rain Light Rain
9:54 PM 48.9 °F 44.1 °F 83% 29.97 in 9.0 mi ENE 11.5 mph - 0.06 in Rain Light Rain
10:12 PM 48.2 °F 44.6 °F 87% 29.98 in 10.0 mi ENE 9.2 mph - 0.00 in   Overcast
10:54 PM 48.0 °F 45.0 °F 89% 29.96 in 10.0 mi ENE 11.5 mph - 0.00 in   Overcast
11:54 PM 48.9 °F 46.0 °F 90% 29.94 in 10.0 mi ENE 9.2 mph - N/A   Overcast